TimeMST,TemperatureF,Dew PointF,Humidity,Sea Level PressureIn,VisibilityMPH,Wind Direction,Wind SpeedMPH,Gust SpeedMPH,PrecipitationIn,Events,Conditions,WindDirDegrees,DateUTC
12:53 AM,28.0,17.1,63,30.04,10.0,ESE,11.5,-,N/A,,Clear,120,2013-02-08 07:53:00
1:53 AM,28.0,17.1,63,30.03,10.0,East,11.5,-,N/A,,Clear,80,2013-02-08 08:53:00
2:53 AM,26.1,16.0,66,30.00,10.0,East,9.2,-,N/A,,Clear,90,2013-02-08 09:53:00
3:53 AM,26.1,16.0,66,29.99,10.0,ESE,11.5,-,N/A,,Clear,110,2013-02-08 10:53:00
4:53 AM,21.0,14.0,74,30.00,10.0,ESE,6.9,-,N/A,,Clear,110,2013-02-08 11:53:00
5:53 AM,21.0,14.0,74,30.04,10.0,Calm,Calm,-,N/A,,Clear,0,2013-02-08 12:53:00
6:53 AM,19.0,14.0,81,30.05,10.0,Calm,Calm,-,N/A,,Clear,0,2013-02-08 13:53:00
7:53 AM,21.9,16.0,78,30.06,10.0,NE,6.9,-,N/A,,Clear,40,2013-02-08 14:53:00
8:53 AM,32.0,19.0,59,30.02,10.0,Calm,Calm,-,N/A,,Clear,0,2013-02-08 15:53:00
9:53 AM,35.1,19.9,54,29.99,10.0,ESE,5.8,-,N/A,,Clear,120,2013-02-08 16:53:00
10:53 AM,39.9,21.9,49,29.95,10.0,SE,4.6,-,N/A,,Clear,140,2013-02-08 17:53:00
11:53 AM,44.1,21.9,42,29.91,10.0,SSE,4.6,-,N/A,,Clear,150,2013-02-08 18:53:00
12:53 PM,48.0,21.9,36,29.87,10.0,ESE,8.1,-,N/A,,Clear,120,2013-02-08 19:53:00
1:53 PM,48.9,21.9,35,29.83,10.0,SE,10.4,-,N/A,,Clear,130,2013-02-08 20:53:00
2:53 PM,54.0,19.9,26,29.77,10.0,SE,13.8,-,N/A,,Clear,130,2013-02-08 21:53:00
3:53 PM,53.1,19.0,26,29.77,10.0,ESE,12.7,-,N/A,,Clear,120,2013-02-08 22:53:00
4:53 PM,48.0,18.0,30,29.79,10.0,SE,8.1,-,N/A,,Clear,130,2013-02-08 23:53:00
5:53 PM,34.0,17.1,50,29.84,10.0,East,6.9,-,N/A,,Clear,100,2013-02-09 00:53:00
6:53 PM,34.0,18.0,52,29.83,10.0,ENE,10.4,-,N/A,,Clear,70,2013-02-09 01:53:00
7:53 PM,36.0,19.0,50,29.81,10.0,Calm,Calm,-,N/A,,Clear,0,2013-02-09 02:53:00
8:53 PM,30.9,18.0,59,29.78,10.0,Calm,Calm,-,N/A,,Clear,0,2013-02-09 03:53:00
9:53 PM,30.9,19.0,61,29.77,10.0,NNE,11.5,-,N/A,,Clear,20,2013-02-09 04:53:00
10:53 PM,30.9,19.0,61,29.75,10.0,NNE,18.4,-,N/A,,Clear,30,2013-02-09 05:53:00
11:53 PM,28.9,19.9,69,29.74,10.0,NNE,13.8,-,N/A,,Clear,30,2013-02-09 06:53:00